PST,Max TemperatureF,Mean TemperatureF,Min TemperatureF,Max Dew PointF,MeanDew PointF,Min DewpointF,Max Humidity, Mean Humidity, Min Humidity, Max Sea Level PressureIn, Mean Sea Level PressureIn, Min Sea Level PressureIn, Max VisibilityMiles, Mean VisibilityMiles, Min VisibilityMiles, Max Wind SpeedMPH, Mean Wind SpeedMPH, Max Gust SpeedMPH,PrecipitationIn, CloudCover, Events, WindDirDegrees
2013-1-1,21,4,-14,5,-7,-17,87,67,47,30.70,30.60,30.49,10,10,10,17,8,20,0.00,0,,171
2013-1-2,21,6,-9,7,-4,-13,90,72,54,30.67,30.58,30.31,10,10,10,15,8,16,0.00,0,,178
2013-1-3,30,8,-14,7,-5,-16,86,60,34,30.69,30.58,30.28,10,10,10,16,9,20,0.00,0,,171
2013-1-4,25,9,-7,7,-4,-12,86,63,40,30.63,30.54,30.45,10,10,10,17,10,40,0.00,0,,177
2013-1-5,37,16,-6,13,1,-11,88,59,29,30.66,30.49,30.24,10,10,10,17,8,20,0.00,0,,170
2013-1-6,33,17,1,14,8,-1,95,69,42,30.27,30.17,30.00,10,10,10,,,,0.00,1,,-1
2013-1-7,33,15,-4,15,5,-8,95,71,46,30.45,30.32,30.18,10,10,10,12,5,,0.00,1,,181
2013-1-8,43,25,6,28,14,3,92,73,53,30.51,30.39,30.19,10,10,10,16,9,20,0.00,0,,175
2013-1-9,45,28,10,27,20,8,92,69,45,30.40,30.11,29.68,10,10,10,36,17,47,0.00,1,,164
2013-1-10,38,23,7,25,16,2,92,76,59,29.85,29.65,29.53,10,5,0,32,16,41,0.24,7,Fog-Snow,302
2013-1-11,19,3,-13,9,1,-17,83,70,56,30.18,29.98,29.81,10,8,2,16,7,21,0.01,6,Snow,279
2013-1-12,15,-1,-17,2,-9,-21,86,70,53,30.35,30.24,29.93,10,10,10,17,9,20,T,5,,181
2013-1-13,9,-6,-22,-1,-13,-25,79,74,68,30.49,30.36,29.97,10,10,10,20,10,24,T,2,,159
2013-1-14,7,-8,-24,-3,-13,-28,87,75,63,30.68,30.58,30.10,10,10,10,16,9,20,0.00,1,,178
2013-1-15,24,8,-8,13,0,-13,91,75,59,30.82,30.64,30.32,10,10,10,15,8,17,0.00,3,,187
2013-1-16,32,14,-5,14,3,-7,91,69,47,30.85,30.73,30.51,10,10,10,15,7,16,0.00,0,,176
2013-1-17,31,12,-8,11,0,-11,83,63,43,30.84,30.71,30.59,10,10,10,17,8,18,0.00,0,,176
2013-1-18,36,16,-5,13,0,-10,82,59,35,30.72,30.62,30.51,10,10,10,18,10,20,0.00,0,,173
2013-1-19,41,20,-1,11,2,-7,80,53,25,30.72,30.62,30.51,10,10,10,18,9,21,0.00,0,,174
2013-1-20,39,19,-1,13,3,-5,87,60,32,30.67,30.56,30.36,10,10,10,20,9,58,0.00,0,,173
2013-1-21,42,21,0,13,5,-5,83,54,25,30.65,30.53,30.42,10,10,10,17,8,33,0.00,0,,172
2013-1-22,51,29,7,20,10,0,80,51,21,30.52,30.39,30.26,10,10,10,20,10,30,0.00,0,,171
2013-1-23,48,34,20,27,19,10,62,48,33,30.30,30.22,30.13,10,10,10,21,13,25,0.00,2,,194
2013-1-24,44,38,31,35,32,26,100,80,59,30.28,30.22,30.13,10,10,7,17,5,21,0.07,8,Rain,179
2013-1-25,45,37,29,35,32,28,100,85,70,30.29,30.20,30.06,10,10,10,13,5,16,T,6,,169
2013-1-26,44,37,29,35,32,27,100,85,70,30.11,29.92,29.79,10,10,3,17,5,20,0.00,6,,170
2013-1-27,38,26,14,33,24,11,96,89,82,29.99,29.81,29.65,10,4,0,31,11,39,0.35,8,Fog-Rain-Snow,306
2013-1-28,25,6,-13,15,5,-13,91,71,50,30.24,30.10,29.90,10,10,4,13,6,21,T,4,Snow,277
2013-1-29,31,24,16,25,20,12,92,78,63,30.35,30.04,29.90,10,4,0,26,7,35,0.13,8,Fog-Snow,342
2013-1-30,39,26,13,29,24,12,88,76,64,30.35,30.32,30.26,10,10,10,25,7,29,T,7,Rain,331
2013-1-31,46,32,18,27,23,16,92,73,53,30.42,30.33,30.24,10,10,10,16,5,20,0.00,2,,183